GFSNE_con_3kmhel_024.txt.gz
Helicity
108 98 94 100 96 92 95 109 128 126 112 77 58 60 75 84 85 69 58 62 96 81 70 89 56 28 41 80 127 171 205 221 249 261 274 182 105 77
99 96 103 106 110 98 96 109 126 133 147 103 79 70 65 66 57 53 48 51 56 67 69 82 76 56 35 45 93 141 164 190 207 249 280 262 128 102
93 92 115 106 103 92 100 112 119 125 133 109 81 70 72 71 76 79 72 56 66 56 90 81 99 111 60 36 61 101 128 137 148 201 289 277 192 96
109 113 106 101 85 82 101 112 130 137 152 86 73 80 91 70 73 75 64 66 61 46 81 99 68 83 79 46 48 73 95 119 119 157 264 276 252 106
116 106 85 86 84 99 108 122 148 137 106 115 100 90 84 70 68 69 81 71 49 42 50 54 -3 25 72 65 50 61 75 88 59 120 170 175 222 146
88 73 85 87 100 108 113 115 130 101 96 110 106 90 76 69 62 65 71 57 40 33 48 78 82 45 48 42 62 63 66 73 64 84 167 63 254 284
70 81 84 126 92 89 107 102 84 80 102 102 94 92 82 63 47 35 41 43 36 50 38 68 53 37 11 -7 52 85 102 89 90 79 129 1 146 527
77 72 80 92 99 72 61 59 51 70 69 83 93 89 56 45 40 44 28 26 45 45 66 39 66 77 82 60 71 121 136 126 132 55 124 98 -283 -108
68 70 77 82 73 75 71 34 36 46 91 88 77 66 50 14 9 21 25 19 19 31 20 74 54 44 83 77 -3 31 100 129 140 50 146 225 270 171
65 69 68 68 81 86 52 34 35 44 57 70 71 43 10 -28 -19 3 8 18 27 29 43 57 39 38 58 57 17 22 84 102 161 62 136 175 295 382
63 64 81 57 80 41 43 30 25 35 59 60 33 20 19 15 19 4 7 -6 6 -6 15 13 13 24 25 35 40 -2 71 89 155 71 88 150 216 307
55 67 83 88 45 30 43 35 31 30 37 38 24 13 18 22 57 54 21 -1 -12 20 15 18 11 14 16 6 17 49 35 84 93 117 48 91 135 151
60 60 65 69 33 24 31 35 32 19 41 44 26 14 5 -2 -2 -2 14 4 -6 -8 21 -4 11 37 49 72 34 51 50 23 110 86 79 115 92 98
55 56 55 39 25 25 34 30 2 31 47 47 21 9 -4 3 11 24 25 7 6 10 2 -11 6 23 39 51 49 42 70 30 53 99 90 78 95 97
56 49 40 39 35 39 72 33 8 23 32 44 16 3 -4 23 43 40 30 42 33 29 20 11 4 13 28 35 46 44 76 52 62 68 77 88 81 82
65 51 59 64 58 66 55 54 36 15 19 37 21 -1 -11 -1 19 28 57 56 47 23 25 33 20 3 17 28 37 48 57 86 41 62 67 80 67 76
52 53 57 60 58 66 62 56 44 14 -5 13 26 2 -17 8 28 39 47 70 43 15 0 -15 -7 -2 -3 22 31 38 48 63 79 79 88 70 70 67
42 39 47 55 57 62 65 56 47 24 -2 -16 -4 12 -6 -13 25 37 40 38 33 28 25 38 -3 -20 -12 1 24 49 30 45 55 57 73 100 103 88
43 34 45 50 56 62 70 67 55 40 20 -9 -22 -10 -14 2 4 22 31 34 32 28 39 52 59 37 -22 -16 9 46 49 28 40 48 58 73 86 105
56 37 38 46 51 60 70 77 72 51 22 0 -21 -19 -9 -10 1 7 13 27 35 38 37 42 40 42 66 172 46 51 73 70 42 48 45 53 63 78
47 44 48 46 50 59 74 84 82 72 52 9 -8 -22 -20 -11 -7 1 14 23 34 27 34 30 26 54 58 56 19 25 46 64 64 64 38 33 31 31
51 47 50 52 53 57 67 78 85 83 75 46 11 -7 -19 -22 -9 0 5 17 27 30 36 37 43 49 27 40 24 15 11 25 43 63 67 74 77 44
67 62 61 66 66 63 62 64 74 85 86 74 36 3 -4 -19 -15 -9 6 13 22 31 42 53 57 55 56 61 75 53 37 29 32 27 47 80 75 59

GFSNE_con_3kmhel_027.txt.gz
Helicity
85 99 105 145 121 157 128 127 101 106 100 99 115 61 69 79 87 90 83 54 39 36 45 39 56 66 82 58 56 86 118 151 191 217 195 225 265 287
93 100 160 126 111 105 126 107 90 97 127 116 106 79 99 103 81 80 81 72 40 34 39 74 58 61 77 78 67 56 85 97 139 184 200 215 256 277
113 167 88 79 129 127 96 110 111 110 144 141 116 112 102 102 99 100 86 73 66 42 44 49 83 90 94 86 74 59 64 80 87 126 174 203 244 254
168 163 142 133 103 93 97 106 116 114 143 130 117 91 79 84 85 72 73 70 70 59 49 48 62 125 85 65 66 55 61 70 70 79 117 175 244 230
112 124 106 88 86 93 111 114 110 120 148 174 115 93 98 81 65 63 65 65 49 29 17 5 66 55 15 45 54 55 67 67 57 70 80 107 181 182
105 93 81 77 104 132 98 115 121 135 130 117 87 93 85 66 74 63 45 53 51 33 38 24 30 16 19 6 11 35 65 57 49 63 93 71 121 174
81 69 82 137 115 99 87 85 93 102 98 80 86 85 86 80 70 38 36 44 47 40 18 24 23 60 26 -5 -3 39 68 67 70 60 124 58 78 134
73 84 81 90 124 110 66 99 75 68 56 73 81 78 57 47 33 29 29 34 40 14 12 5 13 59 81 55 14 31 59 61 58 89 125 62 22 144
80 77 77 86 108 125 115 71 54 50 94 91 71 70 71 57 41 36 10 5 9 12 10 17 16 92 83 107 9 42 -13 14 56 117 94 78 -34 -25
73 65 71 94 152 116 79 48 45 38 37 72 77 66 44 15 8 18 9 11 9 19 17 10 42 20 28 24 52 -8 -11 -5 63 130 73 124 30 31
60 61 108 79 139 91 58 49 42 34 34 44 32 26 23 43 46 58 46 33 25 -12 -1 -6 3 27 12 -5 2 19 31 24 61 121 138 108 83 16
54 61 146 130 105 63 56 51 47 33 27 16 39 25 14 11 29 67 57 47 31 6 -21 17 25 18 10 3 -3 15 31 14 57 110 99 84 150 90
59 67 83 118 73 46 46 54 52 41 26 31 41 35 17 1 -11 -32 -11 3 8 11 -37 -22 17 25 11 25 48 23 38 25 37 100 91 114 97 122
52 63 65 57 38 39 40 53 34 40 50 24 39 28 7 -0 1 1 38 35 31 34 5 -18 -38 6 17 52 60 18 33 41 23 130 85 124 132 150
50 56 43 39 38 47 72 58 42 46 39 30 25 25 8 -5 -10 -13 9 22 51 71 47 38 -0 -1 10 24 43 30 62 30 -12 118 96 66 107 136
43 61 45 56 61 72 61 60 69 60 49 30 17 20 13 -10 -20 -32 13 36 118 24 29 33 16 1 -2 18 33 39 61 90 -21 37 93 81 96 103
77 53 41 46 43 46 55 63 63 66 51 40 10 8 17 1 -24 -30 -20 22 26 21 26 13 13 11 -11 1 30 29 42 88 104 52 46 52 61 67
64 52 46 52 46 38 45 53 65 69 67 44 23 -5 -3 8 4 -16 15 26 18 12 7 18 29 -7 -12 -13 1 36 30 46 51 66 108 117 114 95
61 52 50 54 49 38 45 53 62 83 74 59 33 7 -10 -8 -3 14 17 25 22 27 26 34 13 5 31 32 -5 38 53 58 36 46 54 87 132 153
59 53 56 56 55 41 45 52 62 73 75 70 54 24 -1 -16 -9 -3 9 12 28 44 33 38 14 5 58 145 52 7 58 88 45 48 59 74 97 82
71 60 64 65 67 58 56 72 68 65 69 75 66 51 11 -10 -17 -4 -3 8 35 26 28 23 7 44 66 62 16 20 48 90 79 84 69 55 50 54
99 66 54 67 79 84 76 78 64 60 65 78 78 63 43 -0 -18 -13 -6 6 11 20 34 43 59 66 65 51 57 13 16 34 46 64 79 75 76 83
118 105 86 80 93 99 91 82 72 60 65 72 78 70 59 31 -8 -16 -13 -6 10 17 28 65 65 88 69 46 73 62 8 -2 21 25 51 71 54 56

GFSNE_con_3kmhel_030.txt.gz
Helicity
95 104 137 154 124 171 188 154 150 167 140 104 117 83 115 131 147 140 106 81 72 57 40 21 29 41 43 38 42 71 79 78 104 103 138 145 153 175
105 93 113 148 167 176 139 121 134 156 153 140 131 143 143 145 118 92 81 68 50 39 38 39 46 50 68 59 50 57 62 56 76 87 97 120 142 166
135 195 159 177 168 182 124 169 158 162 165 144 136 140 150 137 80 73 67 76 86 57 48 49 50 58 46 58 59 74 76 61 54 71 71 88 118 157
129 95 100 89 168 160 142 153 151 125 134 159 173 160 127 92 89 80 90 73 85 52 42 51 52 51 37 47 85 70 63 74 55 57 60 63 80 124
161 136 132 136 129 134 151 119 110 130 151 168 147 118 113 89 85 86 77 95 75 42 31 23 34 12 20 32 54 51 45 64 55 34 36 51 72 87
134 123 126 117 162 133 110 110 117 132 124 122 113 103 89 81 90 95 85 69 66 52 44 35 24 11 -6 28 30 -9 7 34 48 58 36 41 59 30
120 132 138 139 111 145 113 113 138 127 108 96 99 97 85 86 84 83 93 68 28 42 48 17 7 9 14 15 10 15 12 30 53 52 46 53 59 40
116 131 125 104 139 117 114 190 114 129 111 134 137 107 95 83 81 74 50 35 14 -5 48 1 31 24 23 41 24 21 17 37 50 47 52 79 34 49
114 123 102 101 176 160 151 120 80 52 74 107 106 97 106 104 75 50 48 60 45 40 48 6 23 19 2 87 23 -3 -27 -29 -0 26 61 70 9 45
116 104 97 125 164 144 104 81 85 72 66 89 83 83 91 66 70 71 68 78 76 75 67 35 18 59 61 32 36 21 -4 -55 -70 -40 51 80 8 32
105 88 93 112 197 147 99 86 73 67 51 37 17 26 39 27 47 73 112 107 113 95 72 30 6 22 33 62 25 10 3 8 -10 -21 64 96 18 50
87 93 130 170 144 98 96 99 87 71 61 59 65 67 61 45 10 22 48 22 15 4 42 3 -16 26 14 9 -6 30 7 31 28 50 72 61 12 50
107 81 118 126 84 61 78 101 90 78 56 78 70 46 48 26 -0 7 9 21 34 111 90 -7 -0 -61 -5 1 -1 47 17 36 43 39 54 66 12 59
90 75 81 75 36 49 65 60 56 68 93 82 62 57 35 28 11 14 13 11 19 77 88 35 34 -5 -41 -17 1 15 -3 21 35 25 49 62 96 129
77 56 50 46 33 56 44 93 97 99 93 83 79 70 42 34 8 -4 -15 2 14 119 6 44 55 28 8 -7 24 5 20 49 16 34 74 88 88 101
59 57 71 74 70 69 56 62 122 122 117 106 79 58 60 32 29 4 -21 -28 -37 7 14 20 -64 -12 -9 -18 -4 39 49 44 60 -34 49 81 100 130
118 97 67 63 74 65 61 70 88 98 104 110 83 78 49 18 10 41 16 -6 3 -19 -16 24 26 8 16 -15 -19 20 47 26 59 28 30 58 84 102
140 102 76 58 79 75 65 63 78 85 126 96 98 80 62 22 10 23 36 14 20 26 -1 11 8 -13 -1 9 6 9 39 37 29 62 55 63 75 135
154 106 73 61 80 87 73 69 77 94 110 101 94 79 71 50 4 -1 -2 20 21 35 55 20 -17 -24 18 79 -14 45 21 42 45 58 73 92 92 128
139 127 83 58 71 97 83 77 107 109 85 86 86 88 81 69 38 -5 -13 -3 15 62 23 17 -18 25 32 61 86 -18 55 39 56 40 64 78 85 67
137 140 113 80 61 117 115 116 124 103 91 92 85 88 81 75 57 12 -16 -13 8 1 10 17 41 70 53 54 56 -4 12 78 75 40 46 49 61 66
114 117 129 102 69 126 149 154 132 119 99 86 90 95 82 81 65 54 -9 -21 -13 -2 3 35 111 91 106 74 69 27 2 22 66 82 86 48 37 97
126 121 145 137 112 111 167 164 139 119 109 105 97 85 89 74 81 65 34 -15 -24 -15 -4 36 122 90 147 61 67 86 15 -4 5 17 58 74 46 34

GFSNE_con_3kmhel_033.txt.gz
Helicity
157 153 172 173 200 164 199 204 188 202 158 124 115 91 96 100 102 94 85 57 30 39 21 15 16 23 28 42 57 58 50 54 76 125 101 89 127 146
99 145 187 235 220 181 142 122 210 226 206 157 103 89 107 113 124 113 62 25 39 31 39 63 77 74 70 65 67 68 65 47 61 77 83 103 101 110
113 143 130 150 177 133 91 140 155 183 154 111 91 89 84 85 58 54 73 74 68 65 71 75 77 76 82 69 64 64 76 40 59 78 74 89 88 81
174 169 151 138 120 108 101 104 108 98 105 99 91 82 84 81 88 89 85 79 87 72 63 78 79 74 75 67 64 80 101 75 71 69 66 68 69 68
149 142 128 133 146 136 123 115 92 84 102 120 112 106 114 112 106 97 85 69 54 63 74 79 79 74 51 20 15 43 60 54 56 72 59 59 65 71
179 156 137 166 145 128 107 86 91 102 112 116 99 94 97 98 103 79 60 46 36 21 42 52 48 47 43 34 20 31 48 30 17 60 55 58 66 77
151 141 166 132 116 108 126 109 111 110 108 111 100 101 100 96 83 72 73 38 29 59 74 58 33 44 54 41 57 47 71 45 57 30 46 56 65 81
126 126 135 136 162 173 166 150 123 99 101 124 103 109 89 73 78 83 73 69 72 96 109 69 85 66 63 66 13 88 81 2 13 39 49 62 78 94
112 119 126 164 154 136 131 107 83 68 97 101 101 108 95 90 102 77 74 100 123 159 98 80 93 101 102 66 25 26 35 38 2 3 40 52 72 80
121 132 128 147 127 128 117 86 72 78 80 90 104 81 95 91 111 91 87 110 114 97 97 106 94 91 121 112 58 37 36 28 0 -3 4 12 51 40
120 120 129 148 126 130 102 67 64 74 62 47 38 48 48 52 55 67 49 32 27 30 87 99 86 32 50 55 5 55 12 77 8 -41 -6 17 52 50
116 147 147 131 125 107 80 75 70 69 76 76 72 71 79 75 44 60 48 24 16 17 64 111 79 35 -30 9 34 4 4 98 60 1 14 50 66 68
135 119 132 121 88 59 58 104 107 92 91 85 83 77 64 59 45 43 45 49 13 31 153 173 134 52 49 -29 20 15 47 -8 17 25 36 70 64 39
134 117 100 91 62 49 57 54 50 75 109 101 111 73 70 57 59 46 27 31 42 55 111 119 82 75 48 -15 8 -8 3 -16 7 35 49 41 23 3
145 101 61 59 38 46 32 28 48 103 118 111 111 88 81 68 33 26 31 26 19 22 15 33 18 21 62 32 4 27 -2 26 40 -6 54 37 64 74
135 118 93 80 65 65 53 49 73 94 120 122 114 100 95 69 47 38 40 42 -13 33 61 56 32 5 48 34 -14 41 19 17 84 4 60 59 67 110
169 163 129 99 73 57 71 70 68 83 104 131 105 76 68 68 60 40 31 30 20 1 82 79 50 38 29 37 -19 6 28 40 38 19 19 57 154 127
207 209 170 111 76 51 62 65 66 75 114 110 98 90 70 67 64 47 20 7 22 56 75 35 -9 34 11 -11 2 18 25 47 44 65 36 31 72 116
221 197 162 111 76 56 75 85 72 88 116 102 99 86 74 71 66 46 32 -9 0 40 50 21 20 6 25 57 24 27 11 41 48 42 56 51 66 65
200 171 138 118 95 65 66 85 86 148 123 96 84 71 64 87 65 50 43 -2 -13 -5 6 10 24 50 36 49 57 -5 31 -10 6 24 40 67 86 102
167 160 145 126 100 77 65 82 138 145 119 101 90 77 60 84 72 56 51 7 -24 -15 3 40 78 110 108 73 24 14 24 70 89 26 25 41 59 65
151 145 147 146 109 86 90 94 140 152 116 94 83 83 81 96 74 65 64 37 -11 -25 -8 17 70 101 119 86 56 -2 18 28 79 109 105 42 31 70
139 140 132 147 152 124 126 148 156 156 124 94 98 109 114 91 63 69 71 43 28 -19 -32 8 46 96 135 86 104 101 30 -7 6 41 85 101 70 61

GFSNE_con_3kmhel_036.txt.gz
Helicity
122 113 110 132 191 233 256 224 228 284 239 118 127 139 147 110 99 93 82 64 77 73 47 46 60 57 56 50 52 64 64 61 52 52 85 112 144 147
105 106 117 124 135 154 164 163 168 170 151 119 121 113 87 69 58 80 79 90 78 75 87 89 80 76 77 73 76 67 60 67 61 52 68 84 92 138
127 105 109 105 114 117 124 133 124 122 134 109 125 85 70 53 71 101 102 103 97 87 84 84 95 90 85 99 104 101 79 68 76 70 68 68 97 113
122 125 120 154 160 136 142 128 117 101 104 105 89 87 68 73 87 91 96 95 84 59 62 79 79 83 96 94 80 65 63 79 96 91 85 79 73 77
132 140 127 139 146 160 134 126 113 101 93 105 110 112 86 80 82 86 87 71 66 46 34 42 49 77 84 92 90 74 56 67 81 80 73 75 66 47
175 167 145 144 149 135 127 126 107 94 96 109 120 104 85 76 93 84 61 64 74 94 96 58 60 79 67 64 57 56 48 65 71 60 49 69 62 44
175 171 155 129 112 124 145 117 106 94 100 104 101 82 61 56 59 71 81 71 76 117 114 123 133 99 93 70 51 34 21 48 83 71 39 26 51 45
165 157 138 135 158 153 150 124 100 93 96 106 100 83 70 68 76 75 84 79 59 96 130 109 112 91 90 97 57 55 23 21 139 98 46 32 35 44
176 162 141 161 152 145 131 117 94 83 96 115 101 96 57 59 71 70 85 111 89 87 102 59 122 95 115 76 45 48 36 18 66 88 57 38 27 65
161 157 142 136 137 142 125 99 81 74 82 100 116 96 94 84 91 81 92 57 51 44 90 70 86 98 103 101 26 24 26 34 -9 58 29 1 5 42
168 159 131 141 137 129 119 89 67 64 70 77 82 64 47 41 63 94 69 32 1 20 68 75 126 136 100 82 45 42 35 53 18 43 32 4 9 32
171 146 120 132 130 120 111 81 70 63 70 79 103 94 80 61 44 103 95 44 32 34 57 51 93 110 68 61 32 53 40 19 51 62 40 4 -0 36
180 155 134 113 120 105 70 96 92 67 58 75 100 94 99 79 75 76 93 83 32 34 59 54 132 85 105 89 44 47 33 28 30 -1 5 1 14 30
185 152 132 97 98 82 60 55 39 58 90 92 94 83 88 86 68 61 58 75 72 48 28 31 54 60 79 102 79 34 15 33 -2 14 -9 22 53 39
185 146 108 98 75 72 46 33 48 76 79 92 85 105 107 95 69 54 56 57 55 57 34 53 59 48 46 95 74 -8 34 31 6 36 5 42 9 19
164 150 145 139 119 91 67 48 70 84 93 96 105 111 98 76 77 82 60 45 37 85 107 114 92 64 30 56 58 -11 29 13 7 27 14 33 37 38
197 197 166 160 120 104 81 66 65 67 90 104 128 108 96 79 68 79 72 48 43 30 82 126 116 73 17 12 58 -7 23 34 -2 50 14 93 86 55
240 210 191 177 159 126 86 65 70 65 77 111 120 107 100 80 67 63 65 56 37 17 22 24 46 57 41 33 23 5 23 23 38 43 55 48 132 142
249 204 190 178 155 130 99 84 70 64 94 133 121 97 87 68 63 62 48 45 38 9 -0 15 30 18 -19 17 23 22 9 37 60 27 24 29 53 117
263 213 198 169 142 119 99 87 59 70 114 141 122 95 90 79 65 63 50 54 42 12 2 18 39 34 7 22 33 6 9 4 25 26 19 19 44 42
240 192 181 164 143 123 109 99 81 78 124 150 119 102 90 93 67 61 55 46 36 23 -4 22 64 100 107 80 17 17 9 46 68 11 9 21 51 48
176 200 174 151 136 127 109 89 83 92 119 129 110 108 86 101 80 60 53 57 46 41 -3 7 38 77 72 72 64 16 23 27 63 78 89 37 40 61
148 187 157 150 146 122 111 106 95 99 108 129 118 110 110 107 81 67 52 51 47 38 14 -6 17 27 42 61 66 62 43 18 7 41 74 110 68 67